TimeEST,TemperatureF,Dew PointF,Humidity,Sea Level PressureIn,VisibilityMPH,Wind Direction,Wind SpeedMPH,Gust SpeedMPH,PrecipitationIn,Events,Conditions,WindDirDegrees,DateUTC
12:00 AM,48.2,37.4,66,30.27,15.0,SW,8.1,-,N/A,,Mostly Cloudy,230,2012-11-18 05:00:00
1:00 AM,42.8,35.6,76,30.27,15.0,Calm,Calm,-,N/A,,Mostly Cloudy,0,2012-11-18 06:00:00
2:00 AM,44.6,37.4,76,30.27,15.0,SSW,3.5,-,N/A,,Overcast,200,2012-11-18 07:00:00
2:21 AM,44.6,37.4,76,30.27,12.0,South,4.6,-,N/A,Rain,Light Rain,170,2012-11-18 07:21:00
3:00 AM,42.8,37.4,81,30.27,12.0,South,3.5,-,N/A,,Overcast,170,2012-11-18 08:00:00
3:27 AM,41.0,37.4,87,30.28,12.0,Calm,Calm,-,N/A,Rain,Light Rain,0,2012-11-18 08:27:00
4:00 AM,44.6,39.2,81,30.27,10.0,South,5.8,-,N/A,Rain,Light Rain,190,2012-11-18 09:00:00
4:38 AM,44.6,39.2,81,30.26,12.0,South,4.6,-,N/A,,Overcast,170,2012-11-18 09:38:00
5:00 AM,44.6,39.2,81,30.27,15.0,South,6.9,-,N/A,,Overcast,190,2012-11-18 10:00:00
6:00 AM,44.6,39.2,81,30.27,15.0,South,10.4,-,N/A,,Overcast,180,2012-11-18 11:00:00
6:25 AM,44.6,39.2,81,30.27,12.0,SSW,6.9,-,N/A,Rain,Light Rain,200,2012-11-18 11:25:00
7:00 AM,44.6,39.2,81,30.26,12.0,South,8.1,-,N/A,,Overcast,190,2012-11-18 12:00:00
8:00 AM,44.6,37.4,76,30.26,12.0,SSW,6.9,-,N/A,,Overcast,210,2012-11-18 13:00:00
9:00 AM,44.6,37.4,76,30.26,10.0,South,8.1,-,N/A,,Overcast,190,2012-11-18 14:00:00
10:00 AM,46.4,37.4,71,30.26,15.0,SSW,8.1,-,N/A,,Mostly Cloudy,200,2012-11-18 15:00:00
11:00 AM,48.2,35.6,62,30.25,15.0,SSW,6.9,-,N/A,,Mostly Cloudy,200,2012-11-18 16:00:00
12:00 PM,46.4,35.6,66,30.24,20.0,South,12.7,-,N/A,,Overcast,180,2012-11-18 17:00:00
1:00 PM,46.4,35.6,66,30.22,10.0,SE,8.1,-,N/A,Rain,Light Rain,140,2012-11-18 18:00:00
1:47 PM,44.6,35.6,71,30.22,20.0,SSE,5.8,-,N/A,,Overcast,150,2012-11-18 18:47:00
2:00 PM,44.6,35.6,71,30.22,20.0,SE,4.6,-,N/A,,Overcast,130,2012-11-18 19:00:00
3:00 PM,44.6,35.6,71,30.20,20.0,ESE,5.8,-,N/A,,Overcast,110,2012-11-18 20:00:00
4:00 PM,44.6,37.4,76,30.19,20.0,East,8.1,-,N/A,Rain,Light Rain,90,2012-11-18 21:00:00
4:31 PM,44.6,37.4,76,30.18,20.0,East,9.2,-,N/A,,Mostly Cloudy,90,2012-11-18 21:31:00
5:00 PM,44.6,37.4,76,30.17,20.0,East,8.1,-,N/A,,Mostly Cloudy,80,2012-11-18 22:00:00
6:00 PM,39.2,35.6,87,30.16,15.0,ENE,6.9,-,N/A,,Mostly Cloudy,60,2012-11-18 23:00:00
7:00 PM,39.2,35.6,87,30.16,15.0,ENE,6.9,-,N/A,,Clear,70,2012-11-19 00:00:00
8:00 PM,39.2,35.6,87,30.16,15.0,NNE,4.6,-,N/A,,Mostly Cloudy,30,2012-11-19 01:00:00
9:00 PM,33.8,32.0,93,30.16,20.0,Calm,Calm,-,N/A,,Mostly Cloudy,0,2012-11-19 02:00:00
10:00 PM,33.8,32.0,93,30.16,15.0,Calm,Calm,-,N/A,,Clear,0,2012-11-19 03:00:00
11:00 PM,30.2,30.2,100,30.16,15.0,WNW,2.3,-,N/A,,Clear,300,2012-11-19 04:00:00